Torna al catalogo

FENGYUN 1C DEB

AttivoSSO
NORAD 29994·DEBRIS·🇨🇳 China

Lanciato May 10, 1999 da Taiyuan Satellite Launch Center

Loading…

Prossimi Passaggi (prossime 24 ore)

TLE

AggiornatoSource: Space-Track

Epoca: Sep 14, 2026, 01:13 UTC

1 29994U 99025LU  26257.05120664 -.00000214  00000-0 -10361-3 0  9997
2 29994  98.8003 285.5223 0129976 164.8982 224.7623 14.02795158  5869

Traccia FENGYUN 1C DEB in tempo reale con AllMySat

Download on the App Store